| time (UTC) | temp F | wind direction | speed knots | gust knots | rain 1hr in | rain 24hr in | rain mn in | humidity % | barometer mb |
| 20260506232246 | 54 | 37 | 3.5 | 6.1 | 0.00 | 0.00 | 0.00 | 84 | 1007.1 |
| 20260506231241 | 54 | 69 | 2.6 | 6.1 | 0.00 | 0.00 | 0.00 | 84 | 1007.1 |
| 20260506230237 | 54 | 37 | 2.6 | 5.2 | 0.00 | 0.00 | 0.00 | 84 | 1007.2 |
| 20260506225233 | 54 | 35 | 3.5 | 5.2 | 0.00 | 0.00 | 0.00 | 84 | 1007.2 |
| 20260506224229 | 54 | 15 | 3.5 | 6.1 | 0.00 | 0.00 | 0.00 | 84 | 1007.2 |
| 20260506223224 | 54 | 33 | 2.6 | 5.2 | 0.00 | 0.00 | 0.00 | 84 | 1007.1 |
| 20260506222220 | 54 | 90 | 3.5 | 6.1 | 0.00 | 0.00 | 0.00 | 84 | 1007.2 |
| 20260506221216 | 54 | 61 | 3.5 | 6.1 | 0.00 | 0.00 | 0.00 | 84 | 1007.1 |
| 20260506220312 | 54 | 28 | 2.6 | 7.0 | 0.00 | 0.00 | 0.00 | 83 | 1007.2 |
| 20260506215307 | 54 | 52 | 3.5 | 7.0 | 0.00 | 0.00 | 0.00 | 83 | 1007.1 |
| 20260506214302 | 54 | 90 | 2.6 | 6.1 | 0.00 | 0.00 | 0.00 | 83 | 1007.1 |
| 20260506213258 | 54 | 72 | 2.6 | 3.5 | 0.00 | 0.00 | 0.00 | 82 | 1006.9 |
| 20260506212254 | 54 | 53 | 4.3 | 7.0 | 0.00 | 0.00 | 0.00 | 82 | 1006.8 |
| 20260506211310 | 55 | 76 | 2.6 | 7.0 | 0.00 | 0.00 | 0.00 | 82 | 1006.8 |
| 20260506210305 | 55 | 66 | 2.6 | 7.0 | 0.00 | 0.00 | 0.00 | 81 | 1006.6 |
| 20260506205301 | 55 | 107 | 3.5 | 7.0 | 0.00 | 0.00 | 0.00 | 81 | 1006.5 |
| 20260506204237 | 55 | 8 | 2.6 | 5.2 | 0.00 | 0.00 | 0.00 | 81 | 1006.1 |
| 20260506203233 | 56 | 54 | 2.6 | 5.2 | 0.00 | 0.00 | 0.00 | 80 | 1006.0 |
| 20260506202259 | 56 | 23 | 2.6 | 3.5 | 0.00 | 0.00 | 0.00 | 79 | 1005.9 |
| 20260506201254 | 56 | 45 | 2.6 | 6.1 | 0.00 | 0.00 | 0.00 | 78 | 1005.8 |
| 20260506200250 | 57 | 74 | 3.5 | 7.0 | 0.00 | 0.00 | 0.00 | 77 | 1005.7 |
| 20260506195246 | 57 | 90 | 2.6 | 3.5 | 0.00 | 0.00 | 0.00 | 76 | 1005.5 |
| 20260506194241 | 58 | 59 | 2.6 | 7.0 | 0.00 | 0.00 | 0.00 | 76 | 1005.5 |
| 20260506193237 | 58 | 58 | 3.5 | 6.1 | 0.00 | 0.00 | 0.00 | 73 | 1005.2 |
| 20260506192233 | 59 | 104 | 2.6 | 5.2 | 0.00 | 0.00 | 0.00 | 70 | 1005.2 |
| 20260506191228 | 59 | 81 | 2.6 | 3.5 | 0.00 | 0.00 | 0.00 | 68 | 1005.0 |
| 20260506190224 | 60 | 90 | 2.6 | 3.5 | 0.00 | 0.00 | 0.00 | 66 | 1004.9 |
| 20260506185219 | 61 | 58 | 2.6 | 3.5 | 0.00 | 0.00 | 0.00 | 64 | 1005.0 |
| 20260506184215 | 62 | 45 | 1.7 | 3.5 | 0.00 | 0.00 | 0.00 | 65 | 1004.8 |
| 20260506183311 | 62 | 90 | 3.5 | 7.0 | 0.00 | 0.00 | 0.00 | 67 | 1004.7 |
| 20260506182307 | 62 | 72 | 2.6 | 3.5 | 0.00 | 0.00 | 0.00 | 69 | 1004.7 |
| 20260506181303 | 62 | 75 | 2.6 | 5.2 | 0.00 | 0.00 | 0.00 | 69 | 1004.6 |
| 20260506180318 | 62 | 63 | 3.5 | 9.6 | 0.00 | 0.00 | 0.00 | 67 | 1004.7 |
| 20260506175254 | 63 | 102 | 3.5 | 7.8 | 0.00 | 0.00 | 0.00 | 65 | 1004.6 |
| 20260506174250 | 64 | 59 | 3.5 | 7.8 | 0.00 | 0.00 | 0.00 | 65 | 1004.5 |
| 20260506173306 | 64 | 58 | 3.5 | 5.2 | 0.00 | 0.00 | 0.00 | 63 | 1004.5 |
| 20260506172241 | 65 | 79 | 2.6 | 5.2 | 0.00 | 0.00 | 0.00 | 61 | 1004.5 |
| 20260506171237 | 65 | 34 | 3.5 | 5.2 | 0.00 | 0.00 | 0.00 | 59 | 1004.4 |
| 20260506170233 | 65 | 35 | 4.3 | 7.8 | 0.00 | 0.00 | 0.00 | 58 | 1004.5 |
| 20260506165228 | 66 | 74 | 3.5 | 7.8 | 0.00 | 0.00 | 0.00 | 57 | 1004.5 |
| 20260506164224 | 67 | 59 | 4.3 | 6.1 | 0.00 | 0.00 | 0.00 | 56 | 1004.5 |
| 20260506163220 | 66 | 90 | 5.2 | 7.8 | 0.00 | 0.00 | 0.00 | 58 | 1004.4 |
| 20260506162236 | 68 | 72 | 4.3 | 7.8 | 0.00 | 0.00 | 0.00 | 55 | 1004.3 |
| 20260506161312 | 70 | 33 | 3.5 | 7.0 | 0.00 | 0.00 | 0.00 | 50 | 1004.3 |
| 20260506160327 | 73 | 285 | 1.7 | 1.7 | 0.00 | 0.00 | 0.00 | 32 | 1004.1 |
| 20260506155306 | 73 | 3 | 2.6 | 3.5 | 0.00 | 0.00 | 0.00 | 32 | 1004.2 |
| 20260506154259 | 73 | 240 | 0.9 | 1.7 | 0.00 | 0.00 | 0.00 | 34 | 1004.2 |
| 20260506153255 | 72 | 203 | 0.0 | 1.7 | 0.00 | 0.00 | 0.00 | 32 | 1004.3 |
| 20260506152251 | 72 | 155 | 2.6 | 5.2 | 0.00 | 0.00 | 0.00 | 32 | 1004.2 |
| 20260506151246 | 72 | 270 | 1.7 | 5.2 | 0.00 | 0.00 | 0.00 | 33 | 1004.3 |
| 20260506150242 | 72 | 326 | 2.6 | 3.5 | 0.00 | 0.00 | 0.00 | 32 | 1004.2 |
| 20260506145238 | 72 | 277 | 2.6 | 3.5 | 0.00 | 0.00 | 0.00 | 33 | 1004.6 |
| 20260506144234 | 72 | 288 | 1.7 | 3.5 | 0.00 | 0.00 | 0.00 | 32 | 1004.5 |
| 20260506143229 | 72 | 308 | 1.7 | 3.5 | 0.00 | 0.00 | 0.00 | 30 | 1004.7 |
| 20260506142225 | 72 | 203 | 2.6 | 3.5 | 0.00 | 0.00 | 0.00 | 30 | 1004.7 |
| 20260506141221 | 72 | 293 | 3.5 | 6.1 | 0.00 | 0.00 | 0.00 | 31 | 1004.9 |
| 20260506140217 | 71 | 51 | 1.7 | 3.5 | 0.00 | 0.00 | 0.00 | 32 | 1005.0 |
| 20260506135312 | 71 | 262 | 0.9 | 3.5 | 0.00 | 0.00 | 0.00 | 32 | 1005.1 |
| 20260506134308 | 71 | 217 | 3.5 | 6.1 | 0.00 | 0.00 | 0.00 | 35 | 1005.2 |
| 20260506133304 | 71 | 195 | 1.7 | 3.5 | 0.00 | 0.00 | 0.00 | 34 | 1005.3 |
| 20260506132300 | 72 | 180 | 2.6 | 3.5 | 0.00 | 0.00 | 0.00 | 34 | 1005.4 |
| 20260506131255 | 72 | 256 | 2.6 | 3.5 | 0.00 | 0.00 | 0.00 | 37 | 1005.5 |
| 20260506130251 | 70 | 227 | 1.7 | 6.1 | 0.00 | 0.00 | 0.00 | 39 | 1005.6 |
| 20260506125247 | 70 | 238 | 2.6 | 7.0 | 0.00 | 0.00 | 0.00 | 40 | 1005.6 |
| 20260506124303 | 68 | 258 | 2.6 | 3.5 | 0.00 | 0.00 | 0.00 | 43 | 1005.7 |
| 20260506123239 | 70 | 315 | 3.5 | 5.2 | 0.00 | 0.00 | 0.00 | 40 | 1005.6 |
| 20260506122234 | 70 | 237 | 0.9 | 3.5 | 0.00 | 0.00 | 0.00 | 42 | 1005.8 |
| 20260506121230 | 68 | 307 | 1.7 | 5.2 | 0.00 | 0.00 | 0.00 | 43 | 1005.8 |
| 20260506120226 | 69 | 274 | 1.7 | 3.5 | 0.00 | 0.00 | 0.00 | 42 | 1006.0 |
| 20260506115222 | 69 | 289 | 1.7 | 5.2 | 0.00 | 0.00 | 0.00 | 43 | 1006.2 |
| 20260506114218 | 67 | 231 | 2.6 | 3.5 | 0.00 | 0.00 | 0.00 | 44 | 1006.3 |
| 20260506113313 | 67 | 248 | 0.9 | 3.5 | 0.00 | 0.00 | 0.00 | 44 | 1006.3 |
| 20260506112309 | 67 | 25 | 1.7 | 3.5 | 0.00 | 0.00 | 0.00 | 42 | 1006.3 |
| 20260506111304 | 67 | 216 | 1.7 | 3.5 | 0.00 | 0.00 | 0.00 | 45 | 1006.5 |
| 20260506110300 | 67 | 225 | 0.0 | 1.7 | 0.00 | 0.00 | 0.00 | 46 | 1006.3 |
| 20260506105256 | 66 | 338 | 0.0 | 1.7 | 0.00 | 0.00 | 0.00 | 47 | 1006.5 |
| 20260506104252 | 68 | 0 | 0.0 | 1.7 | 0.00 | 0.00 | 0.00 | 44 | 1006.7 |
| 20260506103248 | 65 | 49 | 3.5 | 6.1 | 0.00 | 0.00 | 0.00 | 50 | 1006.6 |
| 20260506102305 | 64 | 45 | 0.9 | 3.5 | 0.00 | 0.00 | 0.00 | 56 | 1006.8 |
| 20260506101239 | 64 | 15 | 1.7 | 3.5 | 0.00 | 0.00 | 0.00 | 58 | 1006.9 |
| 20260506100234 | 64 | 11 | 2.6 | 6.1 | 0.00 | 0.00 | 0.00 | 60 | 1006.9 |
| 20260506095230 | 65 | 68 | 0.0 | 1.7 | 0.00 | 0.00 | 0.00 | 60 | 1006.9 |
| 20260506094226 | 63 | 99 | 2.6 | 3.5 | 0.00 | 0.00 | 0.00 | 61 | 1006.9 |
| 20260506093221 | 61 | 31 | 3.5 | 6.1 | 0.00 | 0.00 | 0.00 | 64 | 1006.9 |
| 20260506092237 | 61 | 53 | 1.7 | 5.2 | 0.00 | 0.00 | 0.00 | 67 | 1006.8 |
| 20260506091312 | 60 | 80 | 2.6 | 6.1 | 0.00 | 0.00 | 0.00 | 71 | 1006.9 |
| 20260506090308 | 60 | 39 | 0.9 | 3.5 | 0.00 | 0.00 | 0.00 | 72 | 1006.9 |
| 20260506085306 | 60 | 63 | 1.7 | 3.5 | 0.00 | 0.00 | 0.00 | 73 | 1006.8 |
| 20260506084259 | 59 | 30 | 0.9 | 1.7 | 0.00 | 0.00 | 0.00 | 75 | 1006.8 |
| 20260506083315 | 57 | 34 | 2.6 | 5.2 | 0.00 | 0.00 | 0.00 | 78 | 1007.0 |
| 20260506082251 | 55 | 0 | 1.7 | 3.5 | 0.00 | 0.00 | 0.00 | 82 | 1007.1 |
| 20260506081247 | 57 | 58 | 0.9 | 3.5 | 0.00 | 0.00 | 0.00 | 79 | 1006.8 |
| 20260506080243 | 55 | 33 | 2.6 | 5.2 | 0.00 | 0.00 | 0.00 | 81 | 1006.9 |
| 20260506073250 | 57 | 23 | 0.0 | 1.7 | 0.00 | 0.00 | 0.00 | 71 | 1007.1 |
| 20260506072225 | 55 | 0.0 | 0.0 | 0.00 | 0.00 | 0.00 | 76 | 1007.0 | |
| 20260506071221 | 54 | 0.0 | 0.0 | 0.00 | 0.00 | 0.00 | 76 | 1007.1 | |
| 20260506070217 | 52 | 0.0 | 0.0 | 0.00 | 0.00 | 0.00 | 79 | 1007.0 | |
| 20260506062320 | 45 | 0.0 | 0.0 | 0.00 | 0.00 | 0.00 | 89 | 1006.9 | |
| 20260506061316 | 44 | 0.0 | 0.0 | 0.00 | 0.00 | 0.00 | 89 | 1006.9 | |
| 20260506060252 | 44 | 0.0 | 1.7 | 0.00 | 0.00 | 0.00 | 90 | 1006.8 | |
| 20260506051230 | 41 | 0.0 | 0.0 | 0.00 | 0.00 | 0.00 | 91 | 1006.4 | |
| 20260506050226 | 41 | 0.0 | 0.0 | 0.00 | 0.00 | 0.00 | 91 | 1006.4 | |
| 20260506044218 | 42 | 0.0 | 0.0 | 0.00 | 0.00 | 0.00 | 92 | 1006.3 | |
| 20260506043314 | 42 | 0.0 | 0.0 | 0.00 | 0.00 | 0.00 | 91 | 1006.3 | |
| 20260506042329 | 43 | 0.0 | 0.0 | 0.00 | 0.00 | 0.00 | 91 | 1006.2 | |
| 20260506041305 | 42 | 0.0 | 0.0 | 0.00 | 0.00 | 0.00 | 91 | 1006.4 | |
| 20260506040301 | 43 | 0.0 | 0.0 | 0.00 | 0.00 | 0.00 | 92 | 1006.3 | |
| 20260506035257 | 43 | 0.0 | 0.0 | 0.00 | 0.00 | 0.00 | 92 | 1006.3 | |
| 20260506034252 | 44 | 45 | 0.0 | 1.7 | 0.00 | 0.00 | 0.00 | 92 | 1006.4 |
| 20260506033248 | 42 | 45 | 0.9 | 1.7 | 0.00 | 0.00 | 0.00 | 92 | 1006.3 |
| 20260506032243 | 43 | 0.0 | 0.0 | 0.00 | 0.00 | 0.00 | 92 | 1006.5 | |
| 20260506031239 | 43 | 0.0 | 0.0 | 0.00 | 0.00 | 0.00 | 92 | 1006.6 | |
| 20260506030235 | 43 | 0.0 | 0.0 | 0.00 | 0.00 | 0.00 | 91 | 1006.5 | |
| 20260506025231 | 44 | 90 | 0.0 | 1.7 | 0.00 | 0.00 | 0.00 | 90 | 1006.6 |
| 20260506024226 | 45 | 0.0 | 0.0 | 0.00 | 0.00 | 0.00 | 88 | 1006.3 | |
| 20260506023222 | 46 | 0.0 | 0.0 | 0.00 | 0.00 | 0.00 | 86 | 1006.5 | |
| 20260506022218 | 46 | 0.0 | 0.0 | 0.00 | 0.00 | 0.00 | 84 | 1006.5 | |
| 20260506021314 | 44 | 0.0 | 0.0 | 0.00 | 0.00 | 0.00 | 81 | 1006.3 | |
| 20260506020310 | 46 | 0.0 | 0.0 | 0.00 | 0.00 | 0.00 | 80 | 1006.2 | |
| 20260506015306 | 45 | 0.0 | 0.0 | 0.00 | 0.00 | 0.00 | 79 | 1006.2 | |
| 20260506014301 | 46 | 0.0 | 0.0 | 0.00 | 0.00 | 0.00 | 79 | 1006.2 | |
| 20260506013257 | 45 | 293 | 0.9 | 1.7 | 0.00 | 0.00 | 0.00 | 76 | 1006.3 |
| 20260506012333 | 48 | 0.0 | 0.0 | 0.00 | 0.00 | 0.00 | 72 | 1006.3 | |
| 20260506011249 | 47 | 0.0 | 0.0 | 0.00 | 0.00 | 0.00 | 71 | 1006.1 | |
| 20260506010244 | 48 | 0.0 | 0.0 | 0.00 | 0.00 | 0.00 | 69 | 1006.4 | |
| 20260506005240 | 49 | 0.0 | 1.7 | 0.00 | 0.00 | 0.00 | 69 | 1006.4 | |
| 20260506004236 | 48 | 0.0 | 1.7 | 0.00 | 0.00 | 0.00 | 70 | 1006.5 | |
| 20260506003232 | 48 | 0.0 | 0.0 | 0.00 | 0.00 | 0.00 | 71 | 1006.6 | |
| 20260506002248 | 49 | 248 | 0.9 | 1.7 | 0.00 | 0.00 | 0.00 | 67 | 1006.6 |
| 20260506001223 | 49 | 0.0 | 1.7 | 0.00 | 0.00 | 0.00 | 69 | 1006.8 | |
| 20260506000219 | 51 | 68 | 0.9 | 1.7 | 0.00 | 0.00 | 0.00 | 63 | 1006.8 |
| 20260505235215 | 50 | 0.0 | 1.7 | 0.00 | 0.00 | 0.00 | 66 | 1006.8 | |
| 20260505234311 | 51 | 45 | 0.0 | 1.7 | 0.00 | 0.00 | 0.00 | 64 | 1006.9 |
| 20260505233327 | 50 | 78 | 0.9 | 3.5 | 0.00 | 0.00 | 0.00 | 66 | 1006.8 |